Regional Weather Roundup
Issued by NWS Lake Charles, LA

Current Version | Previous Version | Text Only | Print | Product List | Glossary On
Versions: 1 2 3 4 5 6 7 8 9 10 11 12 13 14 15 16 17 18 19 20 21 22 23 24 25 26 27 28 29 30 31 32 33 34 35 36 37 38 39 40 41 42 43 44 45 46 47 48 49 50
000
ASUS44 KLCH 272310
RWRLCH
RWRLCH
REGIONAL WEATHER ROUNDUP
NATIONAL WEATHER SERVICE LAKE CHARLES LA
500 PM CST THU NOV 27 2014

Note: "fair" indicates few or no clouds below 12,000 feet with no
significant weather and/or obstructions to visibility.


ACROSS SOUTHEAST TEXAS

CITY           SKY/WX    TMP DP  RH WIND       PRES   REMARKS
BEAUMONT       CLEAR     61  36  39 N6        30.41S
BEAUMONT CITY    N/A     61  35  36 NE3       30.42S
ORANGE         CLEAR     61  32  34 N3        30.43S
JASPER         CLEAR     58  30  34 NE3       30.46R
$$

ACROSS CENTRAL LOUISIANA

CITY           SKY/WX    TMP DP  RH WIND       PRES   REMARKS
LEESVILLE      CLEAR     55  35  45 NE3       30.43R
FULLERTON        N/A     53  35  50 CALM      30.41R
ALEXANDRIA INT CLEAR     54  31  41 NE6       30.43R
ESLER FIELD    CLEAR     52  31  44 N3        30.45R
DERIDDER         N/A     57  30  36 N3        30.44S
OAKDALE        CLEAR     54  39  57 CALM      30.44R
OPELOUSAS        N/A     53  33  46 N6        30.43R
$$

ACROSS SOUTHWEST AND SOUTH CENTRAL LOUISIANA

CITY           SKY/WX    TMP DP  RH WIND       PRES   REMARKS
SULPHUR        CLEAR     59  32  36 N5        30.43S
LAKE CHARLES   CLEAR     59  33  37 N6        30.42R
CHENNAULT INT  CLEAR     59  32  36 N5        30.43R
CAMERON PHI    CLEAR     61  34  36 CALM      30.45S
DEQUINCY         N/A     56  37  47 CALM      30.43R
JENNINGS         N/A     56  33  41 NE5       30.43R
LAFAYETTE      CLEAR     56  30  37 N8        30.43R
NEW IBERIA     CLEAR     56  31  38 N10       30.42R
ABBEVILLE        N/A     55  32  41 N5        30.42S
PATTERSON      CLEAR     57  30  35 N7          N/A
SALT POINT       N/A     64  33  31 CALM      30.39R
$$

SELECTED SITES ACROSS THE REGION

CITY           SKY/WX    TMP DP  RH WIND       PRES   REMARKS
HOUSTON BUSH   CLEAR     62  35  36 NE6       30.42R
HOUSTON HOBBY  CLEAR     63  34  33 NE3       30.41S
GALVESTON      CLEAR     59  43  55 N3        30.43S
COLLEGE STAT   CLEAR     62  28  27 NE3       30.41F
CONROE         CLEAR     62  32  32 NE3       30.42S
HUNTSVILLE     CLEAR     61  31  32 CALM      30.41F
LUFKIN         CLEAR     60  33  36 E5        30.42S
SHREVEPORT     PTCLDY    54  27  35 N3        30.44S
MONROE         CLEAR     47  33  58 E6        30.48S
NATCHEZ MS     CLEAR     48  30  49 N6        30.46R
BATON ROUGE    CLEAR     56  25  30 VRB3      30.42R
N.O. INTL ARPT PTCLDY    56  35  45 N9        30.40R
SLIDELL        CLEAR     55  30  38 N5        30.40R
$$

MARINE REPORTS

STATION/POSITION TIME  TEMP    WIND        PRES    VSBY  WAVE
                       AIR SEA DIR/SP/G                  HT/PER
                 (UTC) (F)     (DEG/KT/KT) (MB)    (MI)  (FT/S)
BUOY 30 S HIGH I 2300   58 61   80/  8/ 10 1029.6F         2/ 4
SEA RIM ST PARK  2300   60      70/  4/  4 1030.5R
PORT ARTHUR      2300      59     CALM     1030.0S
SABINE PASS N    2300   59 58  130/  3/  4 1029.8F
TEXAS POINT      NOT AVBL
CALCASIEU PASS   2300   61 57   60/  3/  4   N/A
LK CHARLES BEACH 2300   62 59              1030.2S
MARSH ISLAND     NOT AVBL
FRESH WATER LOCK 2300   58 59  340/  8/ 12 1029.7R
AMERADA PASS     2300   59 55   40/  3/  5 1029.2S
$$


USA.gov is the U.S. government's official web portal to all federal, state and local government web resources and services.